Weather History for DeKalb, IL

Change the Weather History Date:

Monday, January 21, 2013

  Actual Average (KARR) Record (KARR)
Temperature  
Mean Temperature 6 °F 21 °F  
Max Temperature 10 °F 29 °F 40 °F (1999)
Min Temperature 1 °F 12 °F -14 °F (2000)
Degree Days  
Heating Degree Days 60 45  
Month to date heating degree days 925  
Since 1 July heating degree days 3574  
Cooling Degree Days 0 0  
Month to date cooling degree days 0  
Year to date cooling degree days 0  
Moisture  
Dew Point -5 °F    
Average Humidity 60    
Maximum Humidity 79    
Minimum Humidity 41    
Precipitation  
Precipitation 0.00 in 0.05 in 0.24 in (2006)
Month to date precipitation 0.90  
Year to date precipitation 0.90  
Sea Level Pressure  
Sea Level Pressure 30.18 in    
Wind  
Wind Speed 16 mph (WNW)    
Max Wind Speed 26 mph    
Max Gust Speed 33 mph    
Visibility 10 miles    
Events Snow    
T = Trace of Precipitation, MM = Missing Value Source: NWS Daily Summary

Daily Weather History Graph

Daily Weather History Graph

Search for Another Location

Airport:

Trip Planner

Search our weather history database for the weather conditions in past years. The results will help you decide how hot, cold, wet, or windy it might be!

Date:

Astronomy

Jan. 21, 2013 Rise Set
Actual Time 7:16 AM CST 4:56 PM CST
Civil Twilight 6:46 AM CST 5:26 PM CST
Nautical Twilight 6:12 AM CST 6:00 PM CST
Astronomical Twilight 5:39 AM CST 6:33 PM CST
Moon 12:35 PM CST (1/21) 2:44 AM CST (1/21)
Length of Visible Light 10h 40m
Length of Day
9h 39m
Waxing Gibbous, 75% of the Moon is Illuminated
Jan 21
Waxing Gibbous
Jan 26
Full
Feb 3
Last Quarter
Feb 10
New
Feb 17
First Quarter

Hourly Weather History & Observations

Time (CST) Temp. Windchill Dew Point Humidity Pressure Visibility Wind Dir Wind Speed Gust Speed Precip Events Conditions
12:15 AM 10.4 °F -3.3 °F 1.4 °F 67% 30.17 in 10.0 mi West 10.4 mph - N/A   Clear
12:35 AM 10.4 °F -4.1 °F 1.6 °F 68% 30.17 in 10.0 mi West 11.5 mph - N/A   Clear
12:55 AM 10.0 °F -5.2 °F 2.1 °F 70% 30.16 in 10.0 mi West 12.7 mph - N/A   Clear
1:15 AM 10.2 °F -5.0 °F 3.2 °F 73% 30.16 in 10.0 mi West 12.7 mph - N/A   Mostly Cloudy
1:35 AM 10.9 °F -6.5 °F 3.4 °F 72% 30.16 in 10.0 mi WNW 17.3 mph 21.9 mph N/A   Overcast
1:55 AM 10.9 °F -6.5 °F 2.1 °F 68% 30.17 in 10.0 mi WNW 17.3 mph 27.6 mph N/A   Overcast
2:15 AM 10.6 °F -6.4 °F 2.8 °F 71% 30.16 in 7.0 mi West 16.1 mph - N/A   Overcast
2:35 AM 10.4 °F -4.1 °F 4.1 °F 76% 30.16 in 5.0 mi West 11.5 mph - N/A Snow Light Snow
2:55 AM 10.4 °F -4.8 °F 4.5 °F 77% 30.15 in 7.0 mi WNW 12.7 mph - N/A Snow Light Snow
3:15 AM 10.2 °F -3.5 °F 4.6 °F 78% 30.14 in 7.0 mi West 10.4 mph - N/A   Overcast
3:35 AM 10.2 °F -4.3 °F 4.8 °F 79% 30.14 in 4.0 mi WNW 11.5 mph - N/A Snow Light Snow
3:55 AM 10.4 °F -8.2 °F 0.3 °F 64% 30.13 in 10.0 mi WNW 19.6 mph 24.2 mph N/A   Overcast
4:15 AM 10.0 °F -6.5 °F -0.2 °F 63% 30.13 in 10.0 mi WNW 15.0 mph 20.7 mph N/A   Overcast
4:35 AM 9.5 °F -5.9 °F 1.4 °F 70% 30.12 in 10.0 mi West 12.7 mph - N/A   Mostly Cloudy
4:55 AM 9.3 °F -7.4 °F 1.4 °F 70% 30.11 in 10.0 mi WNW 15.0 mph - N/A   Overcast
5:15 AM 9.3 °F -5.4 °F 1.6 °F 71% 30.12 in 10.0 mi WNW 11.5 mph - N/A   Overcast
5:35 AM 9.0 °F -9.5 °F 1.9 °F 73% 30.12 in 10.0 mi WNW 18.4 mph 21.9 mph N/A   Overcast
5:55 AM 8.4 °F -10.3 °F -0.6 °F 67% 30.12 in 10.0 mi WNW 18.4 mph 24.2 mph N/A   Overcast
6:15 AM 6.8 °F -7.8 °F -1.8 °F 68% 30.12 in 10.0 mi WNW 10.4 mph - N/A   Scattered Clouds
6:35 AM 6.6 °F -10.2 °F -1.5 °F 69% 30.12 in 10.0 mi West 13.8 mph 17.3 mph N/A   Clear
6:55 AM 7.2 °F -12.4 °F -1.3 °F 68% 30.13 in 10.0 mi West 19.6 mph 25.3 mph N/A   Scattered Clouds
7:15 AM 6.1 °F -15.2 °F -2.0 °F 69% 30.13 in 10.0 mi WNW 23.0 mph 29.9 mph N/A   Mostly Cloudy
7:35 AM 4.3 °F -16.2 °F -5.8 °F 63% 30.14 in 10.0 mi WNW 19.6 mph 32.2 mph N/A   Scattered Clouds
7:55 AM 4.1 °F -16.4 °F -5.3 °F 65% 30.15 in 10.0 mi WNW 19.6 mph 26.5 mph N/A   Clear
8:15 AM 4.6 °F -16.7 °F -4.9 °F 65% 30.15 in 10.0 mi WNW 21.9 mph 26.5 mph N/A   Clear
8:35 AM 4.6 °F -16.2 °F -5.8 °F 62% 30.16 in 10.0 mi West 20.7 mph 33.4 mph N/A   Clear
8:55 AM 4.6 °F -15.7 °F -5.6 °F 63% 30.17 in 10.0 mi WNW 19.6 mph 33.4 mph N/A   Scattered Clouds
9:15 AM 3.9 °F -17.6 °F -6.5 °F 62% 30.17 in 10.0 mi West 21.9 mph 28.8 mph N/A   Scattered Clouds
9:35 AM 4.8 °F -18.2 °F -5.4 °F 63% 30.18 in 10.0 mi WNW 26.5 mph 33.4 mph N/A   Mostly Cloudy
9:55 AM 4.8 °F -15.5 °F -6.7 °F 59% 30.18 in 10.0 mi WNW 19.6 mph 32.2 mph N/A   Scattered Clouds
10:15 AM 5.4 °F -15.7 °F -6.9 °F 57% 30.19 in 10.0 mi WNW 21.9 mph 29.9 mph N/A   Scattered Clouds
10:35 AM 5.5 °F -16.4 °F -7.4 °F 55% 30.19 in 10.0 mi WNW 24.2 mph 28.8 mph N/A   Scattered Clouds
10:55 AM 5.2 °F -16.9 °F -7.8 °F 55% 30.19 in 10.0 mi WNW 24.2 mph 28.8 mph N/A   Scattered Clouds
11:15 AM 5.9 °F -15.9 °F -7.2 °F 55% 30.19 in 10.0 mi WNW 24.2 mph 33.4 mph N/A   Mostly Cloudy
11:35 AM 6.3 °F -15.0 °F -8.0 °F 52% 30.19 in 10.0 mi WNW 23.0 mph 31.1 mph N/A   Scattered Clouds
11:55 AM 6.4 °F -12.3 °F -8.1 °F 51% 30.18 in 10.0 mi WNW 17.3 mph 29.9 mph N/A   Scattered Clouds
12:15 PM 6.8 °F -12.9 °F -8.5 °F 50% 30.18 in 10.0 mi WNW 19.6 mph 33.4 mph N/A   Scattered Clouds
12:35 PM 7.3 °F -13.5 °F -8.1 °F 49% 30.17 in 10.0 mi WNW 23.0 mph 33.4 mph N/A   Clear
12:55 PM 7.7 °F -13.5 °F -8.9 °F 47% 30.17 in 10.0 mi West 24.2 mph 29.9 mph N/A   Clear
1:15 PM 8.1 °F -12.2 °F -9.6 °F 45% 30.17 in 10.0 mi West 21.9 mph 32.2 mph N/A   Clear
1:35 PM 8.4 °F -12.5 °F -9.6 °F 44% 30.17 in 10.0 mi WNW 24.2 mph 28.8 mph N/A   Clear
1:55 PM 8.8 °F -12.4 °F -9.2 °F 44% 30.17 in 10.0 mi West 25.3 mph 32.2 mph N/A   Clear
2:15 PM 8.8 °F -12.8 °F -9.0 °F 44% 30.16 in 10.0 mi West 26.5 mph 31.1 mph N/A   Clear
2:35 PM 9.0 °F -11.8 °F -10.5 °F 41% 30.16 in 10.0 mi WNW 24.2 mph 33.4 mph N/A   Clear
2:55 PM 8.8 °F -10.3 °F -9.9 °F 42% 30.17 in 10.0 mi West 19.6 mph 28.8 mph N/A   Clear
3:15 PM 8.8 °F -12.1 °F -10.1 °F 42% 30.18 in 10.0 mi West 24.2 mph 27.6 mph N/A   Clear
3:35 PM 8.4 °F -11.2 °F -9.9 °F 43% 30.18 in 10.0 mi WNW 20.7 mph 27.6 mph N/A   Clear
3:55 PM 8.2 °F -10.5 °F -9.9 °F 44% 30.18 in 10.0 mi WNW 18.4 mph 31.1 mph N/A   Clear
4:15 PM 7.5 °F -9.7 °F -10.1 °F 45% 30.18 in 10.0 mi WNW 15.0 mph 25.3 mph N/A   Clear
4:35 PM 7.0 °F -13.1 °F -10.3 °F 45% 30.19 in 10.0 mi WNW 20.7 mph 26.5 mph N/A   Clear
4:55 PM 6.1 °F -13.3 °F -10.3 °F 47% 30.19 in 10.0 mi WNW 18.4 mph 25.3 mph N/A   Clear
5:15 PM 5.7 °F -13.2 °F -9.8 °F 49% 30.19 in 10.0 mi WNW 17.3 mph 21.9 mph N/A   Clear
5:35 PM 5.4 °F -11.1 °F -9.4 °F 51% 30.20 in 10.0 mi WNW 12.7 mph - N/A   Clear
5:55 PM 5.2 °F -11.4 °F -8.3 °F 54% 30.20 in 10.0 mi West 12.7 mph 19.6 mph N/A   Clear
6:15 PM 5.0 °F -14.7 °F -8.1 °F 55% 30.20 in 10.0 mi West 18.4 mph 25.3 mph N/A   Clear
6:35 PM 4.8 °F -14.9 °F -7.8 °F 56% 30.20 in 10.0 mi West 18.4 mph 25.3 mph N/A   Clear
6:55 PM 4.5 °F -14.3 °F -7.8 °F 57% 30.21 in 10.0 mi West 16.1 mph 24.2 mph N/A   Clear
7:15 PM 4.1 °F -13.4 °F -7.6 °F 58% 30.21 in 10.0 mi West 13.8 mph 21.9 mph N/A   Clear
7:35 PM 3.9 °F -15.0 °F -7.1 °F 60% 30.21 in 10.0 mi West 16.1 mph - N/A   Clear
7:55 PM 3.7 °F -15.2 °F -7.4 °F 60% 30.22 in 10.0 mi West 16.1 mph 23.0 mph N/A   Clear
8:15 PM 3.2 °F -17.1 °F -7.6 °F 61% 30.22 in 10.0 mi West 18.4 mph 24.2 mph N/A   Clear
8:35 PM 3.2 °F -15.9 °F -7.8 °F 60% 30.23 in 10.0 mi West 16.1 mph 23.0 mph N/A   Clear
8:55 PM 3.0 °F -16.7 °F -7.6 °F 61% 30.23 in 10.0 mi West 17.3 mph 20.7 mph N/A   Clear
9:15 PM 2.8 °F -16.4 °F -7.6 °F 62% 30.23 in 10.0 mi West 16.1 mph 24.2 mph N/A   Clear
9:35 PM 2.8 °F -18.1 °F -7.6 °F 62% 30.23 in 10.0 mi West 19.6 mph 24.2 mph N/A   Clear
9:55 PM 2.8 °F -17.5 °F -7.8 °F 61% 30.24 in 10.0 mi West 18.4 mph - N/A   Clear
10:15 PM 3.0 °F -16.7 °F -8.1 °F 60% 30.24 in 10.0 mi West 17.3 mph 24.2 mph N/A   Clear
10:35 PM 2.7 °F -15.3 °F -8.0 °F 61% 30.24 in 10.0 mi WNW 13.8 mph 23.0 mph N/A   Clear
10:55 PM 2.3 °F -16.4 °F -7.8 °F 63% 30.24 in 10.0 mi WNW 15.0 mph 18.4 mph N/A   Clear
11:15 PM 2.3 °F -15.7 °F -7.6 °F 63% 30.24 in 10.0 mi WNW 13.8 mph 19.6 mph N/A   Clear
11:35 PM 1.9 °F -12.9 °F -7.4 °F 65% 30.24 in 10.0 mi WNW 9.2 mph - N/A   Clear
11:55 PM 1.2 °F -14.7 °F -6.9 °F 69% 30.24 in 10.0 mi WNW 10.4 mph - N/A   Clear